User: anonymous   Login
Location: Unspecified
(0.0000°N, 0.0000°E)
Time: 19:53:00
(UTC+00:00)
Language:

Tansei-1 - Orbit

View from above orbital plane
View from above orbital plane
View from above satellite
View from above satellite

Ground track
Ground track

The orbit data is extracted from the following two-line orbital elements,

1 04952U 71011A   17268.91976213  .00000074  00000-0  93811-5 0  9990
2 04952  29.6678  69.6694 0079991 262.4086 263.6792 13.58471085315447
Epoch (UTC): 25 September 2017 22:04:27
Eccentricity: 0.0079991
inclination: 29.6678°
perigee height: 982 km
apogee height: 1100 km
right ascension of ascending node: 69.6694°
argument of perigee: 262.4086°
revolutions per day: 13.58471085
mean anomaly at epoch: 263.6792°
orbit number at epoch: 31544

The dashed part of the orbit path shows where the satellite is in the earth's shadow,  

DLR